Location: Amance
(47.8008°N, 6.0590°E)
Time: 19:36:39
(UTC+00:00)

Daily predictions for brighter satellites

Satellite Brightness Start Highest point End
(mag) Time Altitude Azimuth Time Altitude Azimuth Time Altitude Azimuth
Cosmos 1655 Rocket 4.3 16:45:29 10° N 16:51:55 84° W 16:58:19 10° S
BREEZE-M R/B 3.1 16:49:54 10° W 16:53:04 74° N 16:59:04 10° ENE
AQUARIUS 4.1 16:49:35 10° SSE 16:54:04 73° ENE 16:58:34 10° N
ATLAS 2AS CENTAUR R/B 4.2 16:47:56 10° NW 16:54:09 25° N 17:00:06 10° ENE
Okean-O 3.9 16:52:30 10° ESE 16:55:49 21° ENE 16:59:09 10° NNE
Cosmos 1606 Rocket 4.1 16:51:51 10° SSE 16:55:53 37° E 16:59:56 10° NNE
USA 215 4.0 16:50:00 10° ENE 16:55:59 40° N 17:01:58 10° WNW
USA 307 3.8 16:53:34 10° WNW 16:57:35 36° N 17:01:34 10° ENE
USA 308 3.8 16:58:24 10° WNW 17:02:25 37° N 17:06:24 10° ENE
Cosmos 2266 Rocket 4.2 16:58:25 10° N 17:04:40 85° W 17:11:00 10° S
Cosmos 1809 Rocket 4.5 16:58:44 10° N 17:04:55 84° E 17:11:02 10° S
CZ-4C R/B 4.2 17:00:56 10° NW 17:05:28 20° N 17:10:36 10° NE
COSMOS 2487 3.4 17:03:37 10° NNW 17:06:59 52° WSW 17:10:19 10° S
Cosmos 1939 Rocket 3.4 17:03:24 10° SE 17:07:01 35° ENE 17:10:37 10° N
Cosmos 1328 3.9 17:03:52 10° NNW 17:07:50 80° W 17:11:46 10° S
Cosmos 2219 3.7 17:02:37 10° NNW 17:08:05 42° NE 17:13:31 10° SE
Aureole 3 4.2 17:06:22 10° SE 17:08:36 18° E 17:10:44 10° NE
Helios 1A Rocket 3.8 17:05:41 10° SE 17:09:13 28° ENE 17:12:45 10° N
Cosmos 1110 Rocket 4.0 17:05:42 10° S 17:10:52 63° ESE 17:16:03 10° NNE
Cosmos 1943 Rocket 4.4 17:12:20 10° W 17:16:13 19° NW 17:20:09 10° N
Cosmos 44 3.5 17:13:03 10° SSW 17:17:20 46° ESE 17:21:54 10° NE
Aureole 3 Rocket 3.8 17:14:43 10° SSE 17:18:15 32° E 17:22:53 10° NNE
CZ-2C R/B 4.0 17:13:31 10° SE 17:18:35 33° ENE 17:23:33 10° N
Envisat 4.5 17:15:24 10° SSW 17:20:11 42° W 17:25:02 10° NNW
NOSS 2-2 (C) 4.5 17:16:38 10° NW 17:21:57 65° NE 17:29:21 10° SE
Cosmos 1953 Rocket 3.5 17:19:48 10° N 17:24:13 67° E 17:28:37 10° SSE
Cosmos 2058 4.1 17:23:18 10° NNE 17:26:28 21° ENE 17:29:38 10° ESE
ATLAS 5 CENTAUR R/B 3.7 17:23:24 10° WNW 17:26:41 20° NNW 17:30:19 10° NNE
Cosmos 2058 Rocket 3.5 17:22:45 10° SSE 17:26:56 40° E 17:31:09 10° NNE
FALCON 9 DEB 4.3 17:24:39 10° WNW 17:27:47 33° N 17:30:07 15° ENE
CZ-4 R/B 1.9 17:25:24 10° SE 17:28:55 33° ENE 17:32:25 10° N
CZ-4B R/B 4.4 17:24:26 10° S 17:29:50 48° W 17:35:11 10° NNW
Cosmos 1400 Rocket 3.3 17:26:32 10° SSE 17:30:24 39° E 17:34:14 10° NNE
Lacrosse 5 3.2 17:26:53 10° WNW 17:31:23 31° N 17:35:34 12° NE
GENESIS II 4.2 17:27:41 10° SW 17:31:44 83° SE 17:35:47 10° NE
ADEOS Rocket 4.1 17:26:44 10° N 17:32:49 52° WNW 17:39:31 10° SW
ERBS 4.4 17:33:09 10° NW 17:35:33 18° N 17:37:46 11° NE
ARGOS 4.2 17:31:49 11° ESE 17:35:57 25° ENE 17:40:18 10° N
USA 281 4.3 17:31:52 10° S 17:38:09 48° WSW 17:44:31 10° NW
Cosmos 1656 4.1 17:36:46 10° S 17:41:55 41° ESE 17:47:10 10° NE
FALCON 9 DEB 3.2 17:40:25 10° SW 17:43:33 50° SE 17:44:57 28° E
Cosmos 2227 Rocket 2.3 17:37:59 10° NNW 17:43:35 57° ENE 17:49:09 10° SE
Cosmos 292 Rocket 3.7 17:40:07 10° SSW 17:44:54 86° ESE 17:49:46 10° NNE
Cosmos 1892 3.0 17:42:40 10° N 17:46:23 42° ENE 17:50:06 10° SSE
CZ-4B R/B 2.6 17:44:44 10° N 17:47:50 41° WNW 17:50:51 10° SW
FALCON 9 DEB 3.0 17:45:44 10° SW 17:48:53 59° SSE 17:50:05 33° E
USA 305 3.4 17:44:53 10° WNW 17:49:04 47° NNE 17:51:11 25° ENE
S3M 4.3 17:44:20 10° SSE 17:49:56 40° E 17:55:37 10° NNE
COSMO-SKYMED 1 2.5 17:45:35 10° NNE 17:49:58 78° ESE 17:54:18 10° S
Cosmos 2263 Rocket 3.8 17:46:52 10° N 17:50:29 17° NE 17:51:44 16° NE
CSL-04 Rocket 4.0 17:46:49 10° SE 17:52:01 43° ENE 17:57:13 10° N
GEOS 3 Rocket 3.8 17:48:39 16° ESE 17:52:46 56° NE 17:58:02 10° NW
SL-4 R/B 2.3 17:50:23 10° WNW 17:53:48 44° N 17:55:22 28° ENE
USA 306 3.3 17:51:14 10° WNW 17:55:26 49° NNE 17:57:16 29° ENE
Timation 2 Rocket 4.5 17:50:02 10° NNW 17:56:35 69° WSW 18:03:20 10° SSE
Cosmos 1346 Rocket 3.1 17:53:36 10° N 17:57:25 42° ENE 17:59:45 20° SE
H-2A R/B 2.4 17:52:30 10° SE 17:57:38 46° ENE 18:02:50 10° N
Cosmos 1076 Rocket 4.1 17:54:10 10° N 17:58:00 32° ENE 17:58:50 30° E
CZ-2D R/B 3.2 17:54:52 10° SSE 17:58:41 85° WSW 18:02:31 10° NNW
Cosmos 1300 3.4 17:55:02 10° SSW 17:58:47 56° WNW 18:02:34 10° N
FALCON 9 DEB 2.9 17:56:22 10° SW 17:59:35 68° SSE 18:00:24 45° E
Cosmos 1315 Rocket 4.2 17:56:51 10° SSE 17:58:40 21° SE 17:58:40 21° SE
Okean O Rocket 4.3 17:57:03 10° SW 18:00:31 23° W 18:04:00 10° NW
Cosmos 1408 3.0 17:57:14 10° N 18:00:42 39° ENE 18:01:18 36° ESE
Cosmos 1417 Rocket 4.5 17:55:14 10° S 18:01:21 60° E 18:07:34 10° NNE
Cosmos 1697 Rocket 3.3 17:57:22 10° SSE 18:02:16 32° ESE 18:04:15 25° ENE
Ariane Rocket 4.3 18:04:42 22° NE 18:04:42 22° NE 18:08:12 10° N
YAOGAN 1 2.4 18:01:49 10° SSE 18:06:07 74° ENE 18:10:27 10° N
Geosat 4.2 18:03:24 18° NE 18:06:54 46° ESE 18:11:43 10° S
SL-08 ROCKET BODY 4.3 18:02:39 10° N 18:08:46 73° E 18:14:56 10° SSE
Cosmos 1825 3.3 18:06:50 10° N 18:09:07 27° NE 18:09:07 27° NE
FALCON 9 DEB 2.8 18:09:01 10° WSW 18:12:15 88° SE 18:12:34 69° ENE
Meteor 2-8 Rocket 4.5 18:08:26 10° S 18:14:33 85° W 18:20:44 10° N
Cosmos 1553 Rocket 4.0 18:13:35 10° S 18:19:58 89° E 18:26:17 10° N
Cosmos 1689 Rocket 3.7 18:17:40 10° N 18:20:21 35° WNW 18:23:01 10° SW
Cosmos 2297 Rocket 2.6 18:18:01 10° NNW 18:23:39 64° WSW 18:29:14 10° SSE
Cosmos 1340 3.7 18:20:02 10° NNW 18:23:40 46° W 18:27:16 10° S
Cosmos 1980 Rocket 4.0 18:19:57 10° SSE 18:21:05 15° SSE 18:21:05 15° SSE
NOSS 3-4 (A) 4.3 18:18:33 10° NW 18:24:57 41° NE 18:27:19 33° ENE
NOSS 3-4 (C) 4.3 18:18:40 10° NW 18:25:02 41° NE 18:27:24 33° ENE
SL-08 RB Rocket 4.4 18:28:47 35° NE 18:28:47 35° NE 18:31:59 10° N
SeaSat 1 2.4 18:29:14 46° ESE 18:30:31 63° ENE 18:35:25 10° NNW
CSL-04 Debris 4.1 18:25:42 10° SSE 18:31:07 89° E 18:36:39 10° NNW
Okean-O 3.5 18:27:42 10° S 18:31:59 49° W 18:36:19 10° NNW
NOSS 3-3 (A) 3.9 18:29:37 10° SSW 18:35:14 54° ESE 18:36:53 43° ENE
NOSS 3-3 (C) 4.0 18:29:42 10° SSW 18:35:22 54° ESE 18:37:00 43° ENE
Meteor 2-15 Rocket 4.3 18:29:51 10° S 18:35:58 76° E 18:42:08 10° NNE
Cosmos 2360 4.4 18:31:36 10° S 18:36:44 46° ESE 18:36:44 46° ESE
USA 307 2.8 18:33:48 10° WNW 18:38:06 73° NNE 18:38:09 73° NE
USA 215 3.5 18:36:03 38° ENE 18:38:18 54° NNE 18:44:39 10° NW
CRYOSAT 2 4.3 18:37:33 10° N 18:42:27 87° W 18:47:19 10° S
USA 308 2.8 18:38:36 10° WNW 18:42:46 76° N 18:42:46 76° N
Cosmos 968 Rocket 4.0 18:39:39 10° NNW 18:44:46 57° WSW 18:49:24 12° S
Cosmos 1745 Rocket 4.2 18:38:34 10° NNW 18:44:51 73° W 18:51:09 10° S
ATLAS 2AS CENTAUR R/B 3.2 18:39:55 10° NW 18:47:11 44° NE 18:48:35 40° ENE
Cosmos 1455 4.1 18:44:04 10° SSW 18:45:23 21° SSW 18:45:23 21° SSW
CZ-4C R/B 3.7 18:50:06 10° NW 18:56:08 33° NNE 18:57:04 32° NE
MOS 1 Rocket 3.5 18:53:26 10° N 18:58:03 68° WNW 19:02:55 10° SSW
CZ-2C R/B 4.3 18:52:42 10° S 18:58:16 46° W 19:03:43 10° NNW
Cosmos 220 Rocket 4.3 18:55:45 10° SSW 18:59:40 64° WSW 18:59:40 64° WSW
Cosmos 2082 3.9 18:56:08 10° NNW 19:01:51 69° WSW 19:03:45 42° S
Cosmos 2058 4.3 18:59:44 10° NNW 19:03:31 37° W 19:06:04 18° SSW
CZ-4 R/B 3.7 19:00:58 10° SW 19:04:01 22° W 19:07:05 10° NW
Meteor 2-10 Rocket 4.3 19:03:54 10° SSW 19:09:03 50° WNW 19:14:04 10° N
Cosmos 1503 Rocket 4.5 19:05:13 10° NNW 19:10:20 58° WSW 19:11:33 46° SSW
ATLAS 5 CENTAUR R/B 4.2 19:10:43 10° NNW 19:13:17 14° N 19:13:43 14° N
Cosmos 1709 Rocket 4.1 19:08:24 10° NNW 19:14:47 76° W 19:17:52 33° S
Cosmos 2369 3.6 19:09:15 10° SSW 19:14:49 84° WSW 19:14:49 84° WSW
Lacrosse 5 3.2 19:10:55 10° NW 19:14:46 31° N 19:14:46 31° N
ARGOS 3.7 19:13:21 31° SSW 19:15:51 57° W 19:21:14 10° NNW
Timation 1 Rocket 4.3 19:09:57 10° NNW 19:16:00 81° WSW 19:16:23 76° SSW
BREEZE-M R/B 4.0 19:11:20 10° WNW 19:16:06 86° SSW 19:16:54 72° ESE
Atlas Centaur 2 4.4 19:17:42 10° SW 19:23:49 22° S 19:23:52 22° S
Cosmos 2227 Rocket 4.1 19:22:42 10° NW 19:27:15 26° WSW 19:31:48 10° SSW
Cosmos 2315 Rocket 4.1 19:26:16 10° SSW 19:32:27 72° W 19:38:41 10° N
Cosmos 2263 Rocket 3.2 19:29:50 10° NNW 19:33:26 39° N 19:33:26 39° N
H-2A R/B 3.9 19:32:32 10° SSW 19:37:13 29° W 19:41:58 10° NNW
Ariane Rocket 4.3 19:44:55 35° NW 19:44:55 35° NW 19:47:57 10° NNW
Cosmos 1697 Rocket 3.6 19:40:41 10° SW 19:46:04 46° NW 19:46:04 46° NW
NOSS 3-4 (A) 4.4 20:09:21 10° NW 20:14:46 54° WNW 20:14:46 54° WNW
NOSS 3-4 (C) 4.4 20:09:28 10° NW 20:14:51 54° WNW 20:14:51 54° WNW
USA 215 4.1 20:23:24 44° WNW 20:23:24 44° WNW 20:27:46 10° WNW
ATLAS 2AS CENTAUR R/B 3.8 20:31:10 10° NW 20:36:01 41° WNW 20:36:01 41° WNW
CZ-4C R/B 4.0 20:38:26 10° NW 20:42:14 37° NW 20:42:14 37° NW
